This is the latest recevied weather packets stored in our database for station/object IZ5MJO-13. If no packets are shown the sender has not sent any weather packets the latest 10 day(s).
| Time | Temp. | Humidity | Pressure | Rain* | Wind** | Luminosity | Snow |
|---|---|---|---|---|---|---|---|
| 1777578221 | 11.11° C | 32% | 1010.8 hPa | - | - | - | - |
| 1777577321 | 11.67° C | 32% | 1010.5 hPa | - | - | - | - |
| 1777576420 | 12.22° C | 31% | 1010.3 hPa | - | - | - | - |
| 1777575520 | 12.22° C | 30% | 1010 hPa | - | - | - | - |
| 1777574620 | 12.78° C | 31% | 1010 hPa | - | - | - | - |
| 1777573720 | 13.33° C | 30% | 1010 hPa | - | - | - | - |
| 1777572820 | 13.89° C | 29% | 1009.7 hPa | - | - | - | - |
| 1777571919 | 15° C | 26% | 1009.5 hPa | - | - | - | - |
| 1777571018 | 16.67° C | 25% | 1009.3 hPa | - | - | - | - |
| 1777570118 | 17.78° C | 22% | 1009.3 hPa | - | - | - | - |
| 1777569218 | 18.89° C | 20% | 1009.3 hPa | - | - | - | - |
| 1777568317 | 20° C | 20% | 1009.1 hPa | - | - | - | - |
| 1777567416 | 20.56° C | 18% | 1009 hPa | - | - | - | - |
| 1777566515 | 20.56° C | 19% | 1009.1 hPa | - | - | - | - |
| 1777565615 | 22.22° C | 17% | 1009 hPa | - | - | - | - |
| 1777564714 | 22.22° C | 16% | 1009 hPa | - | - | - | - |
| 1777563814 | 23.33° C | 21% | 1009 hPa | - | - | - | - |
| 1777562914 | 23.33° C | 19% | 1009.1 hPa | - | - | - | - |
| 1777562014 | 23.89° C | 23% | 1009.1 hPa | - | - | - | - |
| 1777561154 | 23.33° C | 22% | 1009.1 hPa | - | - | - | - |
| 1777561148 | 23.33° C | 22% | 1009.1 hPa | - | - | - | - |
| 1777561113 | 23.33° C | 22% | 1009.1 hPa | - | - | - | - |
| 1777561020 | 23.33° C | 23% | 1009.1 hPa | - | - | - | - |
| 1777560840 | 23.89° C | 22% | 1009.2 hPa | - | - | - | - |
| 1777560212 | 23.33° C | 23% | 1009.1 hPa | - | - | - | - |
* Rain since midnight (hover to see other rain measurements)
** Current wind speed in m/s (hover to see current wind gust speed)